FW9813 Weather Reports


Display with metric or nautical units.
time (UTC)temp
F
wind
direction
speed
MPH
gust
MPH
rain 1hr
in
rain 24hr
in
rain mn
in
humidity
%
barometer
mb
20260831060108 74 0 0.0 2.0 0.00 0.00 0.00 86 1007.8
20260831054558 74 0 0.0 2.0 0.00 0.00 0.00 86 1007.7
20260831053053 74 49 0.0 2.0 0.00 0.00 0.00 85 1008.0
20260831051612 74 156 0.0 2.0 0.00 0.00 0.00 84 1008.2
20260831050051 75 0 0.0 2.0 0.00 0.00 0.00 83 1008.5
20260831044550 75 0 0.0 1.0 0.00 0.00 0.00 83 1008.8
20260831043049 75 0 0.0 2.0 0.00 0.00 0.00 82 1008.9
20260831041559 76 0 0.0 2.0 0.00 0.00 0.00 81 1008.9
20260831040048 76 160 1.0 5.0 0.00 0.00 0.00 81 1008.9
20260831034548 76 0 0.0 2.0 0.00 0.00 0.00 81 1008.9
20260831033058 76 0 0.0 2.0 0.00 0.00 0.00 80 1008.7
20260831031551 77 0 0.0 2.0 0.00 0.00 0.00 79 1008.7
20260831030106 77 0 0.0 2.0 0.00 0.00 0.00 79 1008.6
20260831024611 76 0 0.0 2.0 0.00 0.00 0.00 80 1008.3
20260831023055 76 0 0.0 0.0 0.00 0.00 0.00 84 1008.5
20260831021548 77 0 0.0 0.0 0.00 0.00 0.00 83 1008.5
20260831020050 77 325 0.0 1.0 0.00 0.00 0.00 82 1008.2
20260831014547 78 325 0.0 3.0 0.00 0.00 0.00 81 1008.2
20260831013110 78 0 1.0 3.0 0.00 0.00 0.00 81 1008.2
20260831011550 78 350 1.0 4.0 0.00 0.00 0.00 80 1008.2
20260831010049 79 0 0.0 5.0 0.00 0.00 0.00 79 1008.0
20260831004547 80 87 1.0 6.0 0.00 0.00 0.00 78 1008.0
20260831003057 80 346 1.0 4.0 0.00 0.00 0.00 77 1008.0
20260831001549 81 339 1.0 6.0 0.00 0.00 0.00 76 1008.0
20260831000048 81 313 2.0 5.0 0.00 0.00 0.00 76 1008.0
20260830234547 81 5 2.0 7.0 0.00 0.00 0.00 74 1007.9
20260830233051 82 338 2.0 6.0 0.00 0.00 0.00 74 1008.0
20260830231549 82 318 1.0 8.0 0.00 0.00 0.00 73 1008.1
20260830230049 82 349 2.0 5.0 0.00 0.00 0.00 72 1008.1
20260830224557 82 326 2.0 9.0 0.00 0.00 0.00 72 1007.9
20260830223048 82 360 3.0 8.0 0.00 0.00 0.00 74 1008.0
20260830221550 82 329 2.0 7.0 0.00 0.00 0.00 74 1008.1
20260830220048 81 17 3.0 9.0 0.00 0.00 0.00 75 1008.2
20260830214549 81 11 3.0 8.0 0.00 0.00 0.00 75 1008.4
20260830213054 81 329 3.0 9.0 0.00 0.00 0.00 74 1008.5
20260830211551 80 330 2.0 9.0 0.00 0.00 0.00 75 1008.6
20260830210052 80 16 3.0 10.0 0.00 0.00 0.00 75 1008.8
20260830204547 80 17 2.0 6.0 0.00 0.00 0.00 75 1008.9
20260830203116 81 323 3.0 9.0 0.00 0.00 0.00 75 1008.7
20260830201550 80 340 4.0 11.0 0.00 0.00 0.00 76 1008.7
20260830200049 79 348 4.0 9.0 0.00 0.00 0.00 76 1008.6
20260830194548 78 329 2.0 8.0 0.00 0.00 0.00 78 1008.8
20260830193053 78 65 2.0 10.0 0.00 0.00 0.00 79 1009.4
20260830191555 77 55 2.0 9.0 0.00 0.00 0.00 80 1009.3
20260830190050 76 331 3.0 8.0 0.00 0.00 0.00 80 1009.7
20260830184554 75 331 1.0 4.0 0.00 0.00 0.00 82 1010.1
20260830183105 75 333 1.0 5.0 0.00 0.00 0.00 83 1010.1
20260830181556 75 344 0.0 6.0 0.00 0.00 0.00 83 1010.2
20260830180049 74 345 1.0 4.0 0.00 0.00 0.00 84 1010.2
20260830174551 73 326 2.0 8.0 0.00 0.00 0.00 84 1010.2
20260830173104 73 0 0.0 5.0 0.00 0.00 0.00 85 1010.3
20260830171550 73 328 1.0 6.0 0.00 0.00 0.00 84 1010.2
20260830170051 73 9 1.0 7.0 0.00 0.00 0.00 84 1010.4
20260830164605 72 68 2.0 6.0 0.00 0.00 0.00 85 1009.9
20260830163104 72 336 1.0 4.0 0.00 0.00 0.00 85 1009.9
20260830161547 71 319 2.0 8.0 0.00 0.00 0.00 86 1009.8
20260830160049 71 325 2.0 8.0 0.00 0.00 0.00 86 1009.9
20260830154553 71 335 2.0 8.0 0.00 0.00 0.00 86 1010.1
20260830153050 71 352 1.0 8.0 0.00 0.00 0.00 86 1010.3
20260830151549 70 319 2.0 10.0 0.00 0.00 0.00 86 1010.0
20260830150049 70 0 1.0 7.0 0.00 0.00 0.00 88 1009.9
20260830144602 69 344 2.0 8.0 0.00 0.00 0.00 88 1010.0
20260830143058 69 352 1.0 6.0 0.00 0.00 0.00 89 1010.2
20260830141548 68 310 2.0 8.0 0.00 0.00 0.00 90 1010.2
20260830140048 67 326 2.0 6.0 0.00 0.00 0.00 90 1010.1
20260830134554 67 331 2.0 4.0 0.00 0.02 0.00 91 1010.1
20260830133122 66 306 2.0 5.0 0.00 0.02 0.00 92 1009.9
20260830131605 66 352 1.0 8.0 0.00 0.02 0.00 92 1009.9
20260830130048 66 336 2.0 6.0 0.00 0.02 0.00 92 1010.0
20260830124610 66 11 1.0 4.0 0.00 0.03 0.00 92 1009.9
20260830123052 66 352 2.0 5.0 0.00 0.03 0.00 92 1009.8
20260830121548 66 338 1.0 4.0 0.00 0.03 0.00 92 1010.3
20260830120051 66 348 1.0 8.0 0.00 0.03 0.00 92 1009.7
20260830114612 66 0 2.0 5.0 0.00 0.14 0.00 92 1009.4
20260830113053 66 352 1.0 4.0 0.00 0.14 0.00 92 1009.5
20260830111549 66 0 0.0 2.0 0.00 0.14 0.00 92 1009.8
20260830110047 66 352 1.0 3.0 0.00 0.14 0.00 92 1009.8
20260830104600 66 0 0.0 2.0 0.00 0.19 0.00 92 1009.8
20260830103052 66 338 0.0 2.0 0.00 0.19 0.00 92 1009.8
20260830101550 66 329 0.0 3.0 0.00 0.19 0.00 92 1009.7
20260830100050 66 352 1.0 4.0 0.00 0.19 0.00 92 1009.8
20260830094556 66 0 0.0 3.0 0.00 0.19 0.00 92 1009.5
20260830093051 66 344 1.0 4.0 0.00 0.19 0.00 92 1009.3
20260830091549 67 0 0.0 3.0 0.00 0.19 0.00 92 1009.4
20260830084549 67 0 0.0 2.0 0.00 0.19 0.00 92 1009.6
20260830083108 67 0 0.0 2.0 0.00 0.19 0.00 91 1009.7
20260830081551 67 0 0.0 3.0 0.00 0.19 0.00 91 1009.5
20260830080047 67 0 0.0 3.0 0.00 0.19 0.00 91 1010.0
20260830074557 67 343 1.0 3.0 0.00 0.20 0.00 91 1009.7
20260830073053 67 0 0.0 3.0 0.00 0.20 0.00 91 1010.2
20260830071551 68 0 0.0 3.0 0.00 0.20 0.00 90 1010.1
20260830064549 68 352 1.0 4.0 0.00 0.20 0.00 90 1010.1
20260830063048 68 344 0.0 4.0 0.00 0.20 0.00 90 1010.2
20260830061602 68 346 0.0 3.0 0.00 0.20 0.00 89 1010.2